Weather History for KLXN - October, 2012

Change the Weather History Date:

Monday, October 8, 2012

  Actual Average Record
Temperature  
Mean Temperature 52 °F -  
Max Temperature 74 °F 66 °F 91 °F (2010)
Min Temperature 30 °F 39 °F 14 °F (2000)
Degree Days  
Heating Degree Days 13    
Growing Degree Days 2 (Base 50)    
Moisture  
Dew Point 25 °F    
Average Humidity 44    
Maximum Humidity 82    
Minimum Humidity 13    
Precipitation  
Precipitation 0.00 in - - ()
Sea Level Pressure  
Sea Level Pressure 29.88 in    
Wind  
Wind Speed 5 mph (West)    
Max Wind Speed 13 mph    
Max Gust Speed 18 mph    
Visibility 10 miles    
Events      
Averages and records for this station are not official NWS values.
T = Trace of Precipitation, MM = Missing Value Source: NWS Daily Summary

Daily Weather History Graph

Daily Weather History Graph

Search for Another Location

Airport or City:

Trip Planner

Search our weather history database for the weather conditions in past years. The results will help you decide how hot, cold, wet, or windy it might be!

Date:

Astronomy

Oct. 08, 2012 Rise Set
Actual Time 7:43 AM CDT 7:08 PM CDT
Civil Twilight 7:16 AM CDT 7:36 PM CDT
Nautical Twilight 6:44 AM CDT 8:07 PM CDT
Astronomical Twilight 6:12 AM CDT 8:39 PM CDT
Moon 12:22 AM CDT (10/8) 3:01 PM CDT (10/8)
Length of Visible Light 12h 20m
Length of Day
11h 25m
Last Quarter, 46% of the Moon is Illuminated
Oct 8
Last Quarter
Oct 15
New
Oct 21
First Quarter
Oct 29
Full
Nov 6
Last Quarter

Hourly Weather History & Observations

Time (CDT) Temp. Windchill Dew Point Humidity Pressure Visibility Wind Dir Wind Speed Gust Speed Precip Events Conditions
12:15 AM 40.3 °F 36.3 °F 25.9 °F 56% 30.00 in 10.0 mi SW 5.8 mph - N/A   Clear
12:35 AM 41.2 °F 36.0 °F 25.7 °F 54% 30.00 in 10.0 mi WSW 8.1 mph - N/A   Clear
12:55 AM 41.2 °F 36.0 °F 25.5 °F 54% 30.00 in 10.0 mi WSW 8.1 mph - N/A   Clear
1:15 AM 40.5 °F 35.8 °F 25.0 °F 54% 30.00 in 10.0 mi WSW 6.9 mph - N/A   Clear
1:35 AM 41.9 °F 36.3 °F 24.8 °F 51% 29.99 in 10.0 mi WSW 9.2 mph - N/A   Clear
1:55 AM 41.9 °F 36.9 °F 24.8 °F 51% 29.99 in 10.0 mi SW 8.1 mph - N/A   Clear
2:15 AM 39.9 °F 37.8 °F 24.1 °F 53% 29.99 in 10.0 mi WSW 3.5 mph - N/A   Clear
2:35 AM 39.2 °F 35.0 °F 23.9 °F 54% 29.98 in 10.0 mi SW 5.8 mph - N/A   Clear
2:55 AM 41.7 °F 36.7 °F 24.6 °F 51% 29.98 in 10.0 mi WSW 8.1 mph - N/A   Clear
3:15 AM 38.8 °F 36.5 °F 24.3 °F 56% 29.98 in 10.0 mi West 3.5 mph - N/A   Clear
3:35 AM 37.9 °F 35.5 °F 24.4 °F 58% 29.98 in 10.0 mi West 3.5 mph - N/A   Clear
3:55 AM 38.7 °F 32.4 °F 24.6 °F 57% 29.97 in 10.0 mi West 9.2 mph - N/A   Clear
4:15 AM 35.2 °F 29.5 °F 24.6 °F 65% 29.97 in 10.0 mi West 6.9 mph - N/A   Clear
4:35 AM 36.3 °F 30.8 °F 24.4 °F 62% 29.96 in 10.0 mi West 6.9 mph - N/A   Clear
4:55 AM 35.8 °F 30.9 °F 24.4 °F 63% 29.96 in 10.0 mi WSW 5.8 mph - N/A   Clear
5:15 AM 33.1 °F - 24.3 °F 70% 29.95 in 10.0 mi Calm Calm - N/A   Clear
5:35 AM 32.5 °F - 24.8 °F 73% 29.95 in 10.0 mi Calm Calm - N/A   Clear
5:55 AM 31.6 °F - 25.0 °F 76% 29.95 in 10.0 mi Calm Calm - N/A   Clear
6:15 AM 30.9 °F - 24.8 °F 78% 29.94 in 10.0 mi Calm Calm - N/A   Clear
6:35 AM 32.2 °F - 25.2 °F 75% 29.94 in 10.0 mi Calm Calm - N/A   Clear
6:55 AM 32.0 °F - 25.2 °F 76% 29.93 in 10.0 mi Calm Calm - N/A   Clear
7:15 AM 31.8 °F - 24.4 °F 74% 29.93 in 10.0 mi Calm Calm - N/A   Clear
7:35 AM 31.8 °F 28.5 °F 24.1 °F 73% 29.92 in 10.0 mi SW 3.5 mph - N/A   Clear
7:55 AM 32.5 °F 29.3 °F 23.9 °F 70% 29.92 in 10.0 mi WSW 3.5 mph - N/A   Clear
8:15 AM 31.5 °F 28.1 °F 24.8 °F 76% 29.92 in 10.0 mi WNW 3.5 mph - N/A   Clear
8:35 AM 32.0 °F - 27.1 °F 82% 29.92 in 10.0 mi Calm Calm - N/A   Clear
8:55 AM 34.7 °F - 28.6 °F 78% 29.93 in 10.0 mi Calm Calm - N/A   Clear
9:15 AM 37.6 °F - 28.9 °F 71% 29.93 in 10.0 mi Calm Calm - N/A   Clear
9:35 AM 41.9 °F - 28.9 °F 60% 29.93 in 7.0 mi Calm Calm - N/A   Clear
9:55 AM 45.7 °F 44.4 °F 28.8 °F 52% 29.92 in 10.0 mi West 3.5 mph - N/A   Clear
10:15 AM 48.4 °F - 28.6 °F 46% 29.92 in 10.0 mi West 4.6 mph - N/A   Clear
10:35 AM 52.3 °F - 30.0 °F 42% 29.92 in 10.0 mi West 6.9 mph - N/A   Clear
10:55 AM 56.3 °F - 29.7 °F 36% 29.91 in 10.0 mi West 9.2 mph - N/A   Clear
11:15 AM 58.6 °F - 28.6 °F 32% 29.90 in 10.0 mi West 8.1 mph - N/A   Clear
11:35 AM 60.1 °F - 29.3 °F 31% 29.90 in 10.0 mi WNW 5.8 mph - N/A   Clear
11:55 AM 62.6 °F - 27.5 °F 26% 29.89 in 10.0 mi WSW 6.9 mph - N/A   Clear
12:15 PM 64.0 °F - 25.7 °F 23% 29.88 in 10.0 mi West 9.2 mph - N/A   Clear
12:55 PM 67.5 °F - 25.7 °F 21% 29.87 in 10.0 mi WSW 6.9 mph - N/A   Clear
1:15 PM 69.1 °F - 24.3 °F 19% 29.86 in 10.0 mi West 9.2 mph - N/A   Clear
1:35 PM 69.8 °F - 22.6 °F 17% 29.85 in 10.0 mi WSW 6.9 mph - N/A   Clear
1:55 PM 71.6 °F - 20.5 °F 15% 29.84 in 10.0 mi West 12.7 mph 16.1 mph N/A   Clear
2:15 PM 71.4 °F - 21.7 °F 15% 29.83 in 10.0 mi West 9.2 mph - N/A   Clear
2:35 PM 72.0 °F - 21.9 °F 15% 29.82 in 10.0 mi WSW 12.7 mph - N/A   Clear
2:55 PM 72.5 °F - 20.3 °F 14% 29.81 in 10.0 mi WSW 8.1 mph - N/A   Clear
3:15 PM 72.7 °F - 19.9 °F 14% 29.80 in 10.0 mi SW 11.5 mph - N/A   Clear
3:35 PM 73.8 °F - 19.2 °F 13% 29.80 in 10.0 mi WSW 11.5 mph 16.1 mph N/A   Clear
3:55 PM 74.5 °F - 19.8 °F 13% 29.79 in 10.0 mi West 9.2 mph 17.3 mph N/A   Clear
4:15 PM 73.9 °F - 19.8 °F 13% 29.79 in 10.0 mi WNW 8.1 mph 18.4 mph N/A   Clear
4:35 PM 74.1 °F - 19.9 °F 13% 29.79 in 10.0 mi West 9.2 mph 16.1 mph N/A   Clear
4:55 PM 73.8 °F - 19.4 °F 13% 29.79 in 10.0 mi West 9.2 mph - N/A   Clear
5:15 PM 73.4 °F - 19.8 °F 13% 29.78 in 10.0 mi West 5.8 mph - N/A   Clear
5:35 PM 72.9 °F - 19.8 °F 13% 29.78 in 10.0 mi West 9.2 mph - N/A   Clear
5:55 PM 72.5 °F - 20.3 °F 14% 29.79 in 10.0 mi WSW 5.8 mph - N/A   Clear
6:15 PM 70.9 °F - 21.0 °F 15% 29.79 in 10.0 mi West 5.8 mph - N/A   Clear
6:35 PM 68.9 °F - 22.6 °F 17% 29.79 in 10.0 mi West 4.6 mph - N/A   Clear
6:55 PM 65.1 °F - 23.5 °F 21% 29.78 in 10.0 mi Calm Calm - N/A   Clear
7:15 PM 63.0 °F - 25.0 °F 24% 29.79 in 10.0 mi WNW 3.5 mph - N/A   Clear
7:35 PM 61.7 °F - 26.4 °F 26% 29.79 in 10.0 mi Calm Calm - N/A   Clear
7:55 PM 60.8 °F - 25.5 °F 26% 29.79 in 10.0 mi Calm Calm - N/A   Clear
8:15 PM 54.3 °F - 25.7 °F 33% 29.79 in 10.0 mi Calm Calm - N/A   Clear
8:35 PM 52.7 °F - 26.4 °F 36% 29.80 in 10.0 mi Calm Calm - N/A   Clear
8:55 PM 49.8 °F - 27.5 °F 42% 29.81 in 10.0 mi WSW 3.5 mph - N/A   Clear
9:15 PM 48.0 °F - 28.9 °F 48% 29.81 in 10.0 mi WNW 3.5 mph - N/A   Clear
9:35 PM 46.4 °F 45.2 °F 29.8 °F 53% 29.82 in 7.0 mi West 3.5 mph - N/A   Clear
9:55 PM 45.3 °F 44.0 °F 29.8 °F 55% 29.82 in 7.0 mi WNW 3.5 mph - N/A   Clear
10:15 PM 43.9 °F 41.3 °F 29.8 °F 58% 29.82 in 7.0 mi North 4.6 mph - N/A   Clear
10:55 PM 45.3 °F - 27.7 °F 50% 29.84 in 10.0 mi Calm Calm - N/A   Clear
11:15 PM 48.2 °F - 30.6 °F 51% 29.84 in 10.0 mi NE 6.9 mph - N/A   Clear
11:35 PM 50.2 °F - 32.2 °F 50% 29.84 in 10.0 mi NNE 6.9 mph - N/A   Clear
11:55 PM 50.9 °F - 33.3 °F 51% 29.84 in 10.0 mi ENE 6.9 mph - N/A   Clear